FW4608 Weather Reports


time (UTC)temp
F
wind
direction
speed
knots
gust
knots
rain 1hr
in
rain 24hr
in
rain mn
in
humidity
%
barometer
mb
20260831182019 89 228 0.0 2.6 0.00 0.28 0.00 77 1017.3
20260831181519 90 225 0.0 2.6 0.00 0.28 0.00 78 1017.3
20260831181018 90 92 0.0 6.1 0.00 0.28 0.00 78 1017.5
20260831180519 91 328 0.9 6.1 0.00 0.28 0.00 78 1017.6
20260831180017 90 236 0.0 4.3 0.00 0.28 0.00 79 1017.6
20260831175517 90 295 0.9 4.3 0.00 0.28 0.00 78 1017.5
20260831175017 92 115 0.0 3.5 0.00 0.28 0.00 73 1017.6
20260831174514 92 275 0.0 4.3 0.00 0.28 0.00 78 1017.7
20260831174011 90 139 0.0 4.3 0.00 0.28 0.00 79 1017.7
20260831173510 89 204 0.0 3.5 0.00 0.28 0.00 80 1017.7
20260831173009 88 311 0.0 3.5 0.00 0.28 0.00 84 1018.0
20260831172609 87 108 0.0 2.6 0.00 0.28 0.00 81 1018.1
20260831172008 87 221 0.0 2.6 0.00 0.28 0.00 81 1018.1
20260831171509 88 200 0.0 3.5 0.00 0.28 0.00 82 1018.2
20260831171008 88 217 0.0 3.5 0.00 0.28 0.00 82 1018.2
20260831170507 89 316 0.0 3.5 0.00 0.28 0.00 80 1018.1
20260831170007 89 140 0.0 1.7 0.00 0.28 0.00 81 1018.1
20260831165506 89 122 0.0 1.7 0.00 0.28 0.00 80 1018.2
20260831165005 88 309 0.0 1.7 0.00 0.28 0.00 81 1018.4
20260831164504 88 343 0.0 3.5 0.00 0.28 0.00 80 1018.3
20260831164005 88 219 0.0 3.5 0.00 0.28 0.00 80 1018.3
20260831163504 88 246 0.0 1.7 0.00 0.28 0.00 80 1018.4
20260831163007 89 209 0.0 0.9 0.00 0.28 0.00 81 1018.5
20260831162503 89 130 0.0 3.5 0.00 0.28 0.00 80 1018.4
20260831162002 90 279 0.0 3.5 0.00 0.28 0.00 79 1018.5
20260831161504 89 106 0.0 3.5 0.00 0.28 0.00 80 1018.5
20260831161103 89 322 0.0 3.5 0.00 0.28 0.00 81 1018.5
20260831160559 89 343 0.0 1.7 0.00 0.28 0.00 78 1018.7
20260831160105 90 122 0.0 0.9 0.00 0.28 0.00 79 1018.6
20260831155558 91 179 0.0 1.7 0.00 0.28 0.00 77 1018.6
20260831155057 91 23 0.0 1.7 0.00 0.28 0.00 75 1018.6
20260831154607 91 292 0.0 1.7 0.00 0.28 0.00 76 1018.8
20260831154052 91 307 0.0 1.7 0.00 0.28 0.00 76 1018.8
20260831153552 91 300 0.0 0.9 0.00 0.28 0.00 77 1018.8
20260831153050 90 257 0.0 0.9 0.00 0.28 0.00 77 1018.7
20260831152551 90 304 0.0 1.7 0.00 0.28 0.00 73 1018.8
20260831152048 90 160 0.0 1.7 0.00 0.28 0.00 77 1018.7
20260831151547 89 153 0.0 2.6 0.00 0.28 0.00 78 1018.9
20260831151043 89 141 0.0 2.6 0.00 0.28 0.00 77 1018.8
20260831150543 89 15 0.0 1.7 0.00 0.28 0.00 79 1018.7
20260831150040 88 320 0.0 1.7 0.00 0.28 0.00 78 1018.7
20260831145538 87 296 0.0 1.7 0.00 0.28 0.00 80 1018.8
20260831145036 87 191 0.9 1.7 0.00 0.28 0.00 81 1018.7
20260831144536 87 228 0.0 1.7 0.00 0.28 0.00 82 1018.6
20260831144035 86 246 0.0 1.7 0.00 0.28 0.00 82 1018.6
20260831143535 86 229 0.0 1.7 0.00 0.28 0.00 83 1018.6
20260831143031 86 216 0.0 1.7 0.00 0.28 0.00 83 1018.5
20260831142530 85 314 0.0 0.9 0.00 0.28 0.00 83 1018.4
20260831142026 85 252 0.0 1.7 0.00 0.28 0.00 85 1018.4
20260831141528 84 238 0.0 0.9 0.00 0.28 0.00 85 1018.3
20260831141024 83 245 0.0 1.7 0.00 0.28 0.00 85 1018.4
20260831140522 83 238 0.0 1.7 0.00 0.28 0.00 87 1018.3
20260831140034 82 241 0.0 0.9 0.00 0.28 0.00 88 1018.3
20260831135520 81 242 0.0 0.9 0.00 0.28 0.00 89 1018.2
20260831135023 81 110 0.0 0.0 0.00 0.28 0.00 90 1018.1
20260831134516 80 110 0.0 0.0 0.00 0.28 0.00 90 1017.9
20260831134014 80 110 0.0 0.9 0.00 0.28 0.00 90 1017.9
20260831133514 79 110 0.0 0.9 0.00 0.28 0.00 91 1017.9
20260831133011 79 141 0.0 0.9 0.00 0.28 0.00 93 1017.8
20260831132510 78 141 0.0 0.9 0.00 0.28 0.00 94 1017.8
20260831132009 78 132 0.0 0.9 0.00 0.28 0.00 95 1017.7
20260831131511 78 124 0.0 0.9 0.00 0.28 0.00 95 1017.8
20260831131008 78 321 0.0 0.0 0.00 0.28 0.00 95 1017.7
20260831130506 78 321 0.0 0.9 0.00 0.28 0.00 95 1017.7
20260831130008 78 321 0.0 0.9 0.00 0.28 0.00 95 1017.8
20260831125506 78 309 0.0 0.0 0.00 0.28 0.00 95 1017.7
20260831125004 78 309 0.0 0.0 0.00 0.28 0.00 95 1017.7
20260831124503 78 309 0.0 0.0 0.00 0.28 0.00 95 1017.7
20260831124001 78 309 0.0 0.0 0.00 0.28 0.00 95 1017.6
20260831123600 78 309 0.0 0.0 0.00 0.28 0.00 95 1017.6
20260831123100 78 309 0.0 0.0 0.00 0.28 0.00 95 1017.6
20260831122557 77 309 0.0 0.0 0.00 0.28 0.00 95 1017.5
20260831122059 77 309 0.0 0.0 0.00 0.28 0.00 95 1017.5
20260831121555 77 309 0.0 0.0 0.00 0.28 0.00 95 1017.5
20260831121054 76 309 0.0 0.0 0.00 0.28 0.00 95 1017.4
20260831120553 76 309 0.0 0.0 0.00 0.28 0.00 95 1017.4
20260831120057 76 309 0.0 0.0 0.00 0.28 0.00 95 1017.4
20260831115551 76 309 0.0 0.0 0.00 0.28 0.00 95 1017.2
20260831115049 75 309 0.0 0.0 0.00 0.28 0.00 95 1017.2
20260831114549 75 309 0.0 0.0 0.00 0.28 0.00 95 1017.2
20260831114052 75 309 0.0 0.0 0.00 0.28 0.00 95 1017.1
20260831113547 75 309 0.0 0.0 0.00 0.28 0.00 95 1017.1
20260831113107 75 309 0.0 0.0 0.00 0.28 0.00 95 1017.2
20260831112548 75 309 0.0 0.0 0.00 0.28 0.00 95 1017.1
20260831112045 75 309 0.0 0.0 0.00 0.28 0.00 95 1017.0
20260831111544 75 309 0.0 0.0 0.00 0.28 0.00 95 1017.0
20260831111044 75 309 0.0 0.0 0.00 0.28 0.00 95 1016.9
20260831110547 75 309 0.0 0.0 0.00 0.28 0.00 95 1016.8
20260831110044 75 309 0.0 0.0 0.00 0.28 0.00 95 1016.7
20260831105542 75 309 0.0 0.0 0.00 0.28 0.00 95 1016.6
20260831105042 75 309 0.0 0.0 0.00 0.28 0.00 95 1016.7
20260831104541 75 309 0.0 0.0 0.00 0.28 0.00 95 1016.7
20260831104042 75 309 0.0 0.0 0.00 0.28 0.00 95 1016.7
20260831103541 75 309 0.0 0.0 0.00 0.28 0.00 95 1016.6
20260831103047 75 309 0.0 0.0 0.00 0.28 0.00 95 1016.6
20260831102541 75 309 0.0 0.0 0.00 0.28 0.00 95 1016.5
20260831102039 75 309 0.0 0.0 0.00 0.28 0.00 95 1016.5
20260831101539 75 309 0.0 0.0 0.00 0.28 0.00 95 1016.4
20260831101037 75 309 0.0 0.0 0.00 0.28 0.00 95 1016.5
20260831100539 75 309 0.0 0.0 0.00 0.28 0.00 95 1016.5
20260831100038 75 309 0.0 0.0 0.00 0.28 0.00 95 1016.4
20260831095535 75 309 0.0 0.0 0.00 0.28 0.00 95 1016.3
20260831095034 75 309 0.0 0.0 0.00 0.28 0.00 95 1016.4
20260831094539 75 309 0.0 0.0 0.00 0.28 0.00 95 1016.3
20260831094036 75 309 0.0 0.0 0.00 0.28 0.00 95 1016.4
20260831093536 75 309 0.0 0.0 0.00 0.28 0.00 95 1016.3
20260831093033 75 309 0.0 0.0 0.00 0.28 0.00 95 1016.4
20260831092531 75 309 0.0 0.0 0.00 0.28 0.00 94 1016.5
20260831092029 75 309 0.0 0.0 0.00 0.28 0.00 94 1016.5
20260831091536 75 309 0.0 0.0 0.00 0.28 0.00 94 1016.4
20260831091030 75 309 0.0 0.0 0.00 0.28 0.00 94 1016.3
20260831090530 74 309 0.0 0.0 0.00 0.28 0.00 94 1016.2
20260831090027 75 309 0.0 0.0 0.00 0.28 0.00 94 1016.2
20260831085530 75 309 0.0 0.0 0.00 0.28 0.00 94 1016.2
20260831085027 75 309 0.0 0.0 0.00 0.28 0.00 94 1016.2
20260831084529 75 309 0.0 0.0 0.00 0.28 0.00 94 1016.2
20260831084024 75 309 0.0 0.0 0.00 0.28 0.00 94 1016.2
20260831083524 75 309 0.0 0.0 0.00 0.28 0.00 94 1016.2
20260831083023 75 309 0.0 0.0 0.00 0.28 0.00 94 1016.3
20260831082521 75 309 0.0 0.0 0.00 0.28 0.00 94 1016.1
20260831082019 75 309 0.0 0.0 0.00 0.28 0.00 94 1016.2
20260831081522 75 309 0.0 0.0 0.00 0.28 0.00 94 1016.2
20260831081019 75 309 0.0 0.0 0.00 0.28 0.00 94 1016.3
20260831080518 75 309 0.0 0.0 0.00 0.28 0.00 94 1016.3
20260831080029 75 309 0.0 0.0 0.00 0.28 0.00 94 1016.3
20260831075516 75 309 0.0 0.0 0.00 0.28 0.00 94 1016.3
20260831075016 76 309 0.0 0.0 0.00 0.28 0.00 94 1016.3
20260831074515 75 309 0.0 0.0 0.00 0.28 0.00 94 1016.4
20260831074015 75 309 0.0 0.0 0.00 0.28 0.00 94 1016.5
20260831073514 75 309 0.0 0.0 0.00 0.28 0.00 94 1016.5
20260831073014 75 309 0.0 0.0 0.00 0.28 0.00 94 1016.6
20260831072516 75 309 0.0 0.0 0.00 0.28 0.00 94 1016.6
20260831072011 76 309 0.0 0.0 0.00 0.28 0.00 94 1016.5
20260831071510 76 309 0.0 0.0 0.00 0.28 0.00 94 1016.6
20260831071011 75 309 0.0 0.0 0.00 0.28 0.00 94 1016.6
20260831070512 75 309 0.0 0.0 0.00 0.28 0.00 94 1016.7
20260831070012 76 309 0.0 0.0 0.00 0.28 0.00 94 1016.6
20260831065508 76 309 0.0 0.0 0.00 0.28 0.00 94 1016.7
20260831065007 76 309 0.0 0.0 0.00 0.28 0.00 94 1016.6
20260831064507 76 309 0.0 0.0 0.00 0.28 0.00 94 1016.6
20260831064008 76 309 0.0 0.0 0.00 0.28 0.00 94 1016.7
20260831063505 76 309 0.0 0.0 0.00 0.28 0.00 94 1016.8
20260831063007 76 309 0.0 0.0 0.00 0.28 0.00 94 1016.9
20260831062503 76 309 0.0 0.0 0.00 0.28 0.00 94 1016.8
20260831062003 76 309 0.0 0.0 0.00 0.28 0.00 94 1016.9
20260831061501 76 309 0.0 0.0 0.00 0.28 0.00 94 1016.9
20260831061100 76 309 0.0 0.0 0.00 0.28 0.00 94 1016.9
20260831060559 76 309 0.0 0.0 0.00 0.28 0.00 94 1017.0
20260831060058 76 309 0.0 0.0 0.00 0.28 0.00 94 1017.0
20260831055557 76 309 0.0 0.0 0.00 0.28 0.00 94 1017.0
20260831055057 76 309 0.0 0.0 0.00 0.28 0.00 94 1016.9
20260831054557 76 309 0.0 0.0 0.00 0.28 0.00 93 1017.0
20260831054057 76 309 0.0 0.0 0.00 0.28 0.00 93 1017.1
20260831053555 76 309 0.0 0.0 0.00 0.28 0.00 93 1017.0
20260831053056 76 309 0.0 0.0 0.00 0.28 0.00 93 1017.0
20260831052553 76 309 0.0 0.0 0.00 0.28 0.00 94 1017.0
20260831052053 76 309 0.0 0.0 0.00 0.28 0.00 93 1017.1
20260831051559 76 309 0.0 0.0 0.00 0.28 0.00 93 1017.1
20260831051052 76 309 0.0 0.0 0.00 0.28 0.00 93 1017.1
20260831050551 76 309 0.0 0.0 0.00 0.28 0.00 93 1017.0
20260831050053 76 309 0.0 0.0 0.00 0.28 0.00 93 1017.0
20260831045550 76 309 0.0 0.0 0.00 0.28 0.00 93 1017.0
20260831045049 76 309 0.0 0.0 0.00 0.28 0.00 93 1017.1
20260831044554 76 309 0.0 0.0 0.00 0.28 0.00 93 1017.0
20260831044047 76 309 0.0 0.0 0.00 0.28 0.00 93 1017.0
20260831043547 76 309 0.0 0.0 0.00 0.28 0.00 93 1017.0
20260831043045 76 309 0.0 0.0 0.00 0.28 0.00 93 1017.0
20260831042549 76 309 0.0 0.0 0.00 0.28 0.00 93 1017.0
20260831042047 76 309 0.0 0.0 0.00 0.28 0.00 93 1017.0
20260831041548 76 309 0.0 0.0 0.00 0.28 0.00 93 1017.0
20260831041042 76 309 0.0 0.0 0.00 0.28 0.00 93 1017.1
20260831040541 76 309 0.0 0.0 0.00 0.28 0.00 93 1017.1
20260831040040 76 309 0.0 0.0 0.00 0.28 0.00 93 1017.1
20260831035541 76 309 0.0 0.0 0.00 0.28 0.28 93 1017.2
20260831035038 76 309 0.0 0.0 0.00 0.28 0.28 93 1017.2
20260831034546 76 309 0.0 0.0 0.00 0.28 0.28 93 1017.3
20260831034038 77 309 0.0 0.0 0.00 0.28 0.28 93 1017.4
20260831033538 77 309 0.0 0.0 0.00 0.28 0.28 93 1017.4
20260831033038 76 309 0.0 0.0 0.00 0.28 0.28 93 1017.5
20260831032537 77 309 0.0 0.0 0.00 0.28 0.28 93 1017.5
20260831032039 76 309 0.0 0.0 0.00 0.28 0.28 93 1017.5
20260831031536 77 309 0.0 0.0 0.00 0.28 0.28 93 1017.6
20260831031034 76 309 0.0 0.0 0.00 0.28 0.28 93 1017.6
20260831030534 76 309 0.0 0.0 0.00 0.28 0.28 93 1017.6
20260831030033 76 309 0.0 0.0 0.00 0.28 0.28 93 1017.7
20260831025533 76 309 0.0 0.0 0.00 0.28 0.28 93 1017.7
20260831025033 76 309 0.0 0.0 0.00 0.28 0.28 93 1017.7
20260831024535 76 309 0.0 0.0 0.00 0.28 0.28 93 1017.7
20260831024031 76 309 0.0 0.0 0.00 0.28 0.28 93 1017.8
20260831023531 76 309 0.0 0.0 0.00 0.28 0.28 92 1017.9
20260831023029 76 309 0.0 0.0 0.00 0.28 0.28 92 1018.0
20260831022529 76 309 0.0 0.0 0.00 0.28 0.28 92 1017.9
20260831022028 77 309 0.0 0.0 0.00 0.28 0.28 92 1017.8
20260831021530 77 309 0.0 0.0 0.00 0.28 0.28 92 1017.9
20260831021027 77 309 0.0 0.0 0.00 0.28 0.28 92 1017.9
20260831020526 77 309 0.0 0.0 0.00 0.28 0.28 92 1017.9
20260831020026 77 309 0.0 0.0 0.00 0.28 0.28 91 1018.1
20260831015524 77 309 0.0 0.0 0.00 0.28 0.28 91 1018.1
20260831015026 77 309 0.0 0.0 0.00 0.28 0.28 91 1018.0
20260831014528 77 309 0.0 0.0 0.00 0.28 0.28 91 1018.0
20260831014023 77 309 0.0 0.0 0.00 0.28 0.28 91 1018.0
20260831013522 77 309 0.0 0.0 0.00 0.28 0.28 91 1017.9
20260831013022 77 309 0.0 0.0 0.00 0.28 0.28 91 1017.8
20260831012524 77 309 0.0 0.0 0.00 0.28 0.28 90 1017.9
20260831012020 78 309 0.0 0.0 0.00 0.28 0.28 90 1017.9
20260831011533 78 309 0.0 0.0 0.00 0.28 0.28 90 1017.9
20260831011018 78 309 0.0 0.0 0.00 0.28 0.28 90 1017.8
20260831010518 78 309 0.0 0.0 0.00 0.28 0.28 90 1017.8
20260831010016 78 309 0.0 0.0 0.00 0.28 0.28 90 1017.9
20260831005517 78 309 0.0 0.0 0.00 0.28 0.28 90 1017.8
20260831005017 78 309 0.0 0.0 0.00 0.28 0.28 89 1017.8
20260831004516 78 309 0.0 0.0 0.00 0.28 0.28 89 1017.7
20260831004018 78 309 0.0 0.0 0.00 0.28 0.28 89 1017.7
20260831003517 78 314 0.0 0.0 0.00 0.28 0.28 89 1017.5
20260831003014 78 314 0.0 0.0 0.00 0.28 0.28 89 1017.4
20260831002512 78 314 0.0 0.0 0.00 0.28 0.28 88 1017.3
20260831002012 78 314 0.0 0.0 0.00 0.28 0.28 88 1017.4
20260831001511 78 314 0.0 0.0 0.00 0.28 0.28 88 1017.4
20260831001011 79 314 0.0 0.0 0.00 0.28 0.28 88 1017.3
20260831000510 79 314 0.0 0.0 0.00 0.28 0.28 88 1017.1
20260831000011 79 314 0.0 0.0 0.00 0.28 0.28 88 1017.2
20260830235511 79 314 0.0 0.0 0.00 0.28 0.28 87 1017.4
20260830235008 79 314 0.0 0.0 0.00 0.28 0.28 87 1017.3
20260830234508 80 314 0.0 0.0 0.00 0.28 0.28 87 1017.2
20260830234007 80 314 0.0 0.0 0.00 0.28 0.28 87 1017.3
20260830233509 80 313 0.0 0.0 0.00 0.28 0.28 87 1017.3
20260830233006 80 314 0.0 0.0 0.00 0.28 0.28 86 1017.4
20260830232506 80 314 0.0 0.0 0.00 0.28 0.28 86 1017.2
20260830232004 80 314 0.0 0.0 0.00 0.28 0.28 86 1017.2
20260830231504 81 314 0.0 0.9 0.00 0.28 0.28 86 1017.2
20260830231003 81 314 0.0 0.9 0.00 0.28 0.28 85 1017.2
20260830230502 81 359 0.0 0.9 0.00 0.28 0.28 85 1017.2
20260830230002 81 217 0.0 1.7 0.00 0.28 0.28 85 1017.0
20260830225501 82 227 0.0 1.7 0.00 0.28 0.28 85 1017.0
20260830225001 82 306 0.0 0.9 0.00 0.28 0.28 85 1017.0
20260830224601 82 359 0.0 0.9 0.00 0.28 0.28 85 1017.0
20260830224100 82 352 0.0 0.9 0.00 0.28 0.28 85 1017.1
20260830223600 82 299 0.0 2.6 0.00 0.28 0.28 85 1017.1
20260830223112 83 279 0.0 2.6 0.00 0.28 0.28 85 1017.2
20260830222559 83 304 0.0 1.7 0.00 0.28 0.28 85 1016.9
20260830222059 84 304 0.0 3.5 0.00 0.28 0.28 84 1016.9
20260830221557 84 3 0.0 3.5 0.00 0.28 0.28 83 1016.8
20260830221056 85 303 0.0 2.6 0.00 0.28 0.28 84 1016.7
20260830220557 85 332 0.0 2.6 0.00 0.28 0.28 83 1016.6
20260830220056 85 352 0.0 2.6 0.00 0.28 0.28 84 1016.5
20260830215555 85 135 0.0 4.3 0.00 0.28 0.28 84 1016.5
20260830215055 85 207 0.9 4.3 0.00 0.28 0.28 84 1016.5
20260830214612 85 309 0.9 3.5 0.00 0.28 0.28 84 1016.5
20260830214053 85 86 0.0 2.6 0.00 0.28 0.28 85 1016.6
20260830213555 84 216 0.0 2.6 0.00 0.28 0.28 85 1016.5
20260830213053 84 316 0.0 3.5 0.00 0.28 0.28 84 1016.5
20260830212552 84 283 0.0 3.5 0.00 0.28 0.28 84 1016.4
20260830212050 85 90 0.0 2.6 0.00 0.28 0.28 84 1016.5
20260830211550 85 340 0.0 5.2 0.00 0.28 0.28 85 1016.5
20260830211047 84 258 0.0 5.2 0.00 0.28 0.28 85 1016.4
20260830210547 84 85 0.0 3.5 0.00 0.28 0.28 86 1016.6
20260830210046 83 326 0.0 3.5 0.00 0.28 0.28 87 1016.7
20260830205546 82 324 0.0 2.6 0.00 0.28 0.28 89 1016.6
20260830205048 81 129 0.0 3.5 0.00 0.28 0.28 91 1016.7
20260830204554 80 293 0.0 3.5 0.00 0.28 0.28 92 1016.8
20260830204043 79 56 0.0 0.0 0.00 0.28 0.28 92 1016.8
20260830203543 79 56 0.0 0.9 0.00 0.28 0.28 92 1016.9
20260830203041 79 56 0.0 0.0 0.00 0.28 0.28 93 1017.0
20260830202542 78 56 0.0 0.0 0.00 0.28 0.28 93 1016.9
20260830202041 78 56 0.0 0.9 0.00 0.28 0.28 93 1017.1
20260830201540 77 56 0.0 0.9 0.01 0.28 0.28 92 1017.1
20260830201039 76 51 0.0 0.0 0.05 0.28 0.28 92 1017.3
20260830200538 76 59 0.0 1.7 0.06 0.28 0.28 91 1017.3
20260830200046 76 326 0.0 1.7 0.06 0.28 0.28 91 1017.5
20260830195538 76 211 0.0 0.9 0.06 0.28 0.28 91 1017.7
20260830195041 76 228 0.0 1.7 0.06 0.28 0.28 90 1017.8
20260830194537 76 228 0.0 1.7 0.07 0.28 0.28 90 1017.8
20260830194037 77 203 0.0 3.5 0.07 0.28 0.28 90 1017.9
20260830193535 77 113 0.0 3.5 0.08 0.28 0.28 90 1018.0
20260830193035 78 91 0.0 0.9 0.11 0.28 0.28 91 1018.0
20260830192537 78 250 0.0 0.9 0.18 0.28 0.28 91 1018.0
20260830192033 78 211 0.0 1.7 0.27 0.28 0.28 90 1017.9
20260830191534 78 221 0.0 1.7 0.28 0.28 0.28 90 1017.9
20260830191033 79 209 0.0 1.7 0.24 0.24 0.24 89 1017.9
20260830190533 79 312 0.9 2.6 0.23 0.23 0.23 90 1017.8
20260830190043 79 239 0.0 2.6 0.23 0.23 0.23 90 1017.6
20260830185532 79 252 0.0 1.7 0.23 0.23 0.23 90 1017.7
20260830185031 80 242 0.0 1.7 0.23 0.23 0.23 90 1017.7
20260830184530 80 238 0.0 3.5 0.22 0.22 0.22 89 1017.7
20260830184030 81 237 0.0 3.5 0.22 0.22 0.22 87 1017.8
20260830183529 81 137 0.0 1.7 0.21 0.21 0.21 85 1017.8
20260830183029 83 240 0.0 1.7 0.17 0.17 0.17 85 1018.0
20260830182529 86 243 0.0 0.9 0.10 0.10 0.10 83 1017.8